Regional Weather Roundup
Issued by NWS

Home | Current Version | Previous Version | Text Only | Print | Product List | Glossary On
Versions: 1 2 3 4 5 6 7 8 9 10 11 12 13 14 15 16 17 18 19 20 21 22 23 24 25 26 27 28 29 30 31 32 33 34 35 36 37 38 39 40 41 42 43 44 45 46 47 48 49 50
000
ASUS43 KTOP 050059
RWRKS

WEATHER ROUNDUP FOR KANSAS
NATIONAL WEATHER SERVICE GOODLAND KS
700 PM CST SUN DEC 04 2016

NOTE:  "FAIR" INDICATES FEW OR NO CLOUDS BELOW 12,000 FEET WITH NO
SIGNIFICANT WEATHER AND/OR OBSTRUCTIONS TO VISIBILITY.

KSZ001>006-013>018-027>032-041>047-050200-
NORTHWEST KANSAS

CITY           SKY/WX    TMP DP  RH WIND       PRES   REMARKS
GOODLAND       CLEAR     39  13  34 S16       29.86F WCI  30
HAYS           CLEAR     36  25  64 SW9       29.95S
HILL CITY      CLEAR     36  19  50 SW6       29.92F
RUSSELL        CLEAR     36  27  69 S10       29.93F WCI  28
$$

KSZ061>065-074>080-084>089-050200-
SOUTHWEST KANSAS

CITY           SKY/WX    TMP DP  RH WIND       PRES   REMARKS
DODGE CITY     CLEAR     36  26  67 S7        29.97F
ELKHART          N/A     32  16  52 S10         N/A  WCI  24
GARDEN CITY    CLEAR     32  22  66 S8        29.95S
GREAT BEND     CLEAR     35  29  78 S9        29.97F
LIBERAL        CLEAR     36  19  51 S9        29.98F
$$

KSZ066>073-081>083-090>101-050200-
SOUTHEAST KANSAS

CITY           SKY/WX    TMP DP  RH WIND       PRES   REMARKS
CHANUTE        CLEAR     35  33  92 SE3       30.03R
COFFEYVILLE    CLEAR     37  35  92 E3        30.04S
HUTCHINSON     CLEAR     34  30  85 CALM      29.99F
MEDICINE LODGE   N/A     45  27  49 S8        30.00S
NEWTON         CLEAR     37  33  85 MISG      29.99
PARSONS        CLEAR     35  33  92 CALM      30.03F
WICHITA INTL   CLEAR     39  33  79 S6        30.00S
WICHITA JABRA  CLEAR     40  36  86 S6        30.00S
WINFIELD       CLEAR     40  36  86 S5        30.03F
$$

KSZ007>012-019>026-033>040-048>060-102>105-050200-
NORTHEAST KANSAS

CITY           SKY/WX    TMP DP  RH WIND       PRES   REMARKS
CONCORDIA      CLEAR     38  32  79 SW10      29.95S WCI  31
EMPORIA        CLEAR     36  33  89 S7        29.99F
LAWRENCE       CLEAR     30  30 100 CALM      30.01F FOG
MANHATTAN      CLEAR     33  31  92 CALM      29.97F
OLATHE IND     CLEAR     35  33  92 SW5       30.01F
OLATHE EXE     CLEAR     37  34  89 SW5       30.00F
SALINA         CLEAR     38  33  82 S8        29.97F
TOPEKA BILLARD CLEAR     33  30  88 S3        30.00F FOG
TOPEKA FORBES  CLEAR     35  32  88 S7        29.99F
$$



USA.gov is the U.S. government's official web portal to all federal, state and local government web resources and services.